| time (UTC) | temp F | wind direction | speed MPH | gust MPH | rain 1hr in | rain 24hr in | rain mn in | humidity % | barometer mb |
| 20260901113110 | 71 | 227 | 4.0 | 9.0 | 0.00 | 0.01 | 0.00 | 55 | 1017.7 |
| 20260901112106 | 72 | 236 | 5.0 | 11.0 | 0.00 | 0.01 | 0.00 | 53 | 1017.8 |
| 20260901111104 | 72 | 252 | 6.0 | 11.0 | 0.00 | 0.01 | 0.00 | 53 | 1017.9 |
| 20260901110059 | 71 | 219 | 3.0 | 7.0 | 0.00 | 0.01 | 0.00 | 57 | 1017.9 |
| 20260901105056 | 71 | 202 | 5.0 | 11.0 | 0.00 | 0.01 | 0.00 | 58 | 1018.0 |
| 20260901104052 | 69 | 235 | 4.0 | 8.0 | 0.00 | 0.01 | 0.00 | 60 | 1017.8 |
| 20260901103048 | 69 | 268 | 6.0 | 14.0 | 0.00 | 0.01 | 0.00 | 60 | 1017.9 |
| 20260901102044 | 70 | 259 | 6.0 | 9.0 | 0.00 | 0.01 | 0.00 | 61 | 1017.9 |
| 20260901101040 | 69 | 239 | 5.0 | 13.0 | 0.00 | 0.01 | 0.00 | 62 | 1017.9 |
| 20260901100036 | 68 | 267 | 5.0 | 8.0 | 0.00 | 0.01 | 0.00 | 63 | 1017.9 |
| 20260901095032 | 68 | 251 | 6.0 | 9.0 | 0.00 | 0.01 | 0.00 | 63 | 1018.0 |
| 20260901094028 | 68 | 261 | 5.0 | 11.0 | 0.00 | 0.01 | 0.00 | 64 | 1017.9 |
| 20260901093025 | 68 | 228 | 5.0 | 11.0 | 0.00 | 0.01 | 0.00 | 64 | 1018.0 |
| 20260901092022 | 67 | 236 | 6.0 | 11.0 | 0.00 | 0.01 | 0.00 | 64 | 1017.9 |
| 20260901091019 | 67 | 226 | 5.0 | 13.0 | 0.00 | 0.01 | 0.00 | 65 | 1018.0 |
| 20260901090115 | 68 | 235 | 5.0 | 11.0 | 0.00 | 0.01 | 0.00 | 66 | 1018.1 |
| 20260901085109 | 68 | 239 | 6.0 | 11.0 | 0.00 | 0.01 | 0.00 | 65 | 1018.0 |
| 20260901084107 | 67 | 228 | 4.0 | 11.0 | 0.00 | 0.01 | 0.00 | 67 | 1018.0 |
| 20260901083103 | 66 | 213 | 6.0 | 11.0 | 0.00 | 0.01 | 0.00 | 68 | 1018.0 |
| 20260901082059 | 67 | 228 | 5.0 | 9.0 | 0.00 | 0.01 | 0.00 | 69 | 1018.0 |
| 20260901081055 | 66 | 217 | 3.0 | 7.0 | 0.00 | 0.01 | 0.00 | 71 | 1018.0 |
| 20260901080054 | 66 | 227 | 4.0 | 9.0 | 0.00 | 0.01 | 0.00 | 71 | 1017.9 |
| 20260901075049 | 66 | 198 | 3.0 | 6.0 | 0.00 | 0.01 | 0.00 | 73 | 1017.9 |
| 20260901074046 | 65 | 213 | 4.0 | 8.0 | 0.00 | 0.01 | 0.00 | 74 | 1017.8 |
| 20260901073042 | 64 | 226 | 4.0 | 8.0 | 0.00 | 0.01 | 0.00 | 76 | 1017.7 |
| 20260901072038 | 64 | 233 | 4.0 | 9.0 | 0.00 | 0.01 | 0.00 | 79 | 1017.6 |
| 20260901071033 | 63 | 196 | 3.0 | 6.0 | 0.00 | 0.01 | 0.00 | 83 | 1017.7 |
| 20260901070033 | 62 | 280 | 2.0 | 6.0 | 0.00 | 0.01 | 0.00 | 84 | 1017.6 |
| 20260901065028 | 61 | 196 | 3.0 | 7.0 | 0.00 | 0.01 | 0.00 | 86 | 1017.6 |
| 20260901064024 | 60 | 196 | 2.0 | 4.0 | 0.00 | 0.01 | 0.00 | 88 | 1017.6 |
| 20260901063019 | 59 | 180 | 2.0 | 4.0 | 0.00 | 0.01 | 0.00 | 89 | 1017.5 |
| 20260901062017 | 58 | 192 | 3.0 | 4.0 | 0.00 | 0.01 | 0.00 | 89 | 1017.6 |
| 20260901061113 | 58 | 201 | 1.0 | 2.0 | 0.00 | 0.01 | 0.00 | 90 | 1017.7 |
| 20260901060109 | 57 | 184 | 1.0 | 2.0 | 0.00 | 0.01 | 0.00 | 91 | 1017.5 |
| 20260901055105 | 56 | 180 | 0.0 | 2.0 | 0.00 | 0.01 | 0.00 | 93 | 1017.5 |
| 20260901054100 | 56 | 248 | 2.0 | 4.0 | 0.00 | 0.01 | 0.00 | 93 | 1017.5 |
| 20260901053055 | 56 | 257 | 1.0 | 2.0 | 0.00 | 0.01 | 0.00 | 93 | 1017.4 |
| 20260901052052 | 56 | 210 | 1.0 | 2.0 | 0.00 | 0.01 | 0.00 | 94 | 1017.5 |
| 20260901051052 | 56 | 240 | 1.0 | 2.0 | 0.00 | 0.01 | 0.00 | 94 | 1017.3 |
| 20260901050046 | 55 | 223 | 1.0 | 4.0 | 0.00 | 0.01 | 0.00 | 94 | 1017.4 |
| 20260901045043 | 55 | 217 | 2.0 | 2.0 | 0.00 | 0.01 | 0.00 | 94 | 1017.4 |
| 20260901044037 | 56 | 225 | 1.0 | 2.0 | 0.00 | 0.01 | 0.00 | 94 | 1017.4 |
| 20260901043034 | 56 | 236 | 1.0 | 2.0 | 0.00 | 0.01 | 0.00 | 94 | 1017.2 |
| 20260901042032 | 56 | 226 | 1.0 | 2.0 | 0.00 | 0.01 | 0.00 | 94 | 1017.2 |
| 20260901041027 | 56 | 252 | 1.0 | 4.0 | 0.00 | 0.01 | 0.00 | 94 | 1017.1 |
| 20260901040024 | 56 | 222 | 1.0 | 2.0 | 0.00 | 0.01 | 0.00 | 95 | 1017.0 |
| 20260901035021 | 56 | 0.0 | 0.0 | 0.00 | 0.01 | 0.00 | 95 | 1017.1 | |
| 20260901034018 | 56 | 0.0 | 0.0 | 0.00 | 0.02 | 0.00 | 95 | 1017.0 | |
| 20260901033116 | 56 | 180 | 1.0 | 2.0 | 0.00 | 0.02 | 0.00 | 94 | 1016.9 |
| 20260901032110 | 56 | 0.0 | 2.0 | 0.00 | 0.02 | 0.00 | 94 | 1016.9 | |
| 20260901031106 | 57 | 203 | 0.0 | 2.0 | 0.00 | 0.02 | 0.00 | 94 | 1017.0 |
| 20260901025059 | 56 | 225 | 1.0 | 4.0 | 0.00 | 0.04 | 0.00 | 94 | 1016.8 |
| 20260901024056 | 56 | 207 | 1.0 | 2.0 | 0.00 | 0.04 | 0.00 | 93 | 1016.8 |
| 20260901023052 | 57 | 0.0 | 0.0 | 0.00 | 0.14 | 0.00 | 93 | 1016.7 | |
| 20260901022049 | 57 | 197 | 1.0 | 2.0 | 0.00 | 0.22 | 0.00 | 93 | 1016.6 |
| 20260901021043 | 57 | 0.0 | 0.0 | 0.00 | 0.26 | 0.00 | 94 | 1016.6 | |
| 20260901020040 | 57 | 180 | 0.0 | 2.0 | 0.00 | 0.26 | 0.00 | 94 | 1016.5 |
| 20260901015034 | 56 | 0.0 | 0.0 | 0.00 | 0.26 | 0.00 | 94 | 1016.5 | |
| 20260901014030 | 57 | 0.0 | 0.0 | 0.00 | 0.26 | 0.00 | 94 | 1016.3 | |
| 20260901013027 | 57 | 0.0 | 0.0 | 0.00 | 0.26 | 0.00 | 94 | 1016.3 | |
| 20260901012024 | 57 | 0.0 | 0.0 | 0.00 | 0.26 | 0.00 | 93 | 1016.2 | |
| 20260901011021 | 57 | 0.0 | 2.0 | 0.00 | 0.26 | 0.00 | 94 | 1016.1 | |
| 20260901010017 | 57 | 0.0 | 0.0 | 0.00 | 0.26 | 0.00 | 93 | 1016.0 | |
| 20260901005114 | 57 | 0.0 | 0.0 | 0.00 | 0.26 | 0.00 | 93 | 1016.2 | |
| 20260901004108 | 58 | 0.0 | 0.0 | 0.00 | 0.26 | 0.00 | 92 | 1016.1 | |
| 20260901003105 | 58 | 0.0 | 2.0 | 0.00 | 0.26 | 0.00 | 92 | 1016.0 | |
| 20260901002103 | 58 | 113 | 0.0 | 2.0 | 0.00 | 0.26 | 0.00 | 92 | 1015.8 |
| 20260901001059 | 58 | 90 | 0.0 | 2.0 | 0.00 | 0.26 | 0.00 | 92 | 1015.9 |
| 20260901000056 | 59 | 0.0 | 2.0 | 0.00 | 0.26 | 0.00 | 91 | 1015.8 | |
| 20260831235052 | 59 | 225 | 0.0 | 2.0 | 0.00 | 0.26 | 0.00 | 91 | 1015.7 |
| 20260831234051 | 59 | 0.0 | 0.0 | 0.00 | 0.26 | 0.00 | 91 | 1015.7 | |
| 20260831233045 | 59 | 103 | 0.0 | 2.0 | 0.00 | 0.26 | 0.00 | 91 | 1015.7 |
| 20260831232040 | 59 | 0.0 | 0.0 | 0.00 | 0.26 | 0.00 | 91 | 1015.7 | |
| 20260831231036 | 59 | 0.0 | 0.0 | 0.00 | 0.26 | 0.00 | 91 | 1015.7 | |
| 20260831230033 | 59 | 0.0 | 0.0 | 0.00 | 0.26 | 0.00 | 90 | 1015.7 | |
| 20260831225030 | 59 | 0.0 | 0.0 | 0.00 | 0.26 | 0.00 | 90 | 1015.8 | |
| 20260831224027 | 59 | 0.0 | 0.0 | 0.00 | 0.26 | 0.00 | 90 | 1015.9 | |
| 20260831223024 | 60 | 0.0 | 0.0 | 0.00 | 0.26 | 0.00 | 89 | 1015.8 | |
| 20260831222019 | 61 | 180 | 1.0 | 2.0 | 0.00 | 0.26 | 0.00 | 87 | 1015.8 |
| 20260831221114 | 61 | 225 | 0.0 | 2.0 | 0.00 | 0.26 | 0.00 | 86 | 1015.7 |
| 20260831220110 | 61 | 146 | 1.0 | 2.0 | 0.00 | 0.26 | 0.00 | 86 | 1015.7 |
| 20260831215108 | 61 | 88 | 3.0 | 9.0 | 0.00 | 0.26 | 0.26 | 86 | 1015.8 |
| 20260831214102 | 62 | 99 | 1.0 | 4.0 | 0.00 | 0.26 | 0.26 | 85 | 1015.6 |
| 20260831213059 | 61 | 0.0 | 0.0 | 0.00 | 0.26 | 0.26 | 84 | 1015.5 | |
| 20260831212057 | 61 | 0.0 | 0.0 | 0.00 | 0.26 | 0.26 | 85 | 1015.3 | |
| 20260831211052 | 62 | 203 | 0.0 | 2.0 | 0.00 | 0.26 | 0.26 | 83 | 1015.3 |
| 20260831210050 | 63 | 230 | 2.0 | 4.0 | 0.00 | 0.26 | 0.26 | 82 | 1015.1 |
| 20260831205044 | 63 | 224 | 4.0 | 7.0 | 0.00 | 0.26 | 0.26 | 80 | 1014.8 |
| 20260831204040 | 64 | 222 | 5.0 | 11.0 | 0.00 | 0.26 | 0.26 | 78 | 1015.0 |
| 20260831203038 | 64 | 229 | 4.0 | 11.0 | 0.00 | 0.26 | 0.26 | 76 | 1014.9 |
| 20260831202033 | 63 | 237 | 2.0 | 4.0 | 0.00 | 0.26 | 0.26 | 78 | 1014.7 |
| 20260831201031 | 63 | 202 | 2.0 | 4.0 | 0.00 | 0.26 | 0.26 | 78 | 1014.7 |
| 20260831200027 | 64 | 248 | 3.0 | 6.0 | 0.00 | 0.26 | 0.26 | 77 | 1014.5 |
| 20260831195024 | 64 | 255 | 3.0 | 6.0 | 0.00 | 0.26 | 0.26 | 77 | 1014.4 |
| 20260831194021 | 64 | 244 | 3.0 | 7.0 | 0.00 | 0.26 | 0.26 | 77 | 1014.2 |
| 20260831193016 | 63 | 224 | 4.0 | 9.0 | 0.00 | 0.26 | 0.26 | 77 | 1014.1 |
| 20260831192115 | 63 | 221 | 3.0 | 7.0 | 0.00 | 0.26 | 0.26 | 77 | 1014.0 |
| 20260831191110 | 64 | 243 | 4.0 | 7.0 | 0.00 | 0.26 | 0.26 | 76 | 1014.0 |
| 20260831190105 | 64 | 219 | 4.0 | 7.0 | 0.00 | 0.26 | 0.26 | 76 | 1014.1 |
| 20260831185104 | 64 | 212 | 4.0 | 7.0 | 0.00 | 0.26 | 0.26 | 75 | 1013.9 |
| 20260831184059 | 64 | 218 | 3.0 | 7.0 | 0.00 | 0.26 | 0.26 | 75 | 1014.0 |
| 20260831183058 | 64 | 237 | 4.0 | 8.0 | 0.00 | 0.26 | 0.26 | 74 | 1014.0 |
| 20260831182052 | 64 | 247 | 5.0 | 9.0 | 0.00 | 0.26 | 0.26 | 75 | 1013.8 |
| 20260831181046 | 64 | 246 | 3.0 | 8.0 | 0.01 | 0.26 | 0.26 | 78 | 1013.5 |
| 20260831180042 | 64 | 236 | 4.0 | 8.0 | 0.01 | 0.26 | 0.26 | 78 | 1013.4 |
| 20260831175040 | 65 | 224 | 5.0 | 13.0 | 0.01 | 0.26 | 0.26 | 75 | 1013.1 |
| 20260831174034 | 65 | 228 | 7.0 | 11.0 | 0.01 | 0.26 | 0.26 | 74 | 1013.0 |
| 20260831173030 | 65 | 225 | 5.0 | 9.0 | 0.01 | 0.26 | 0.26 | 70 | 1012.6 |
| 20260831172027 | 67 | 235 | 11.0 | 21.0 | 0.01 | 0.26 | 0.26 | 69 | 1012.7 |
| 20260831171025 | 71 | 220 | 14.0 | 27.0 | 0.00 | 0.25 | 0.25 | 55 | 1012.6 |
| 20260831170023 | 72 | 237 | 10.0 | 22.0 | 0.00 | 0.25 | 0.25 | 48 | 1012.5 |
| 20260831165016 | 73 | 238 | 9.0 | 16.0 | 0.00 | 0.25 | 0.25 | 48 | 1012.4 |
| 20260831164112 | 73 | 236 | 8.0 | 14.0 | 0.00 | 0.25 | 0.25 | 47 | 1012.4 |
| 20260831163110 | 73 | 244 | 7.0 | 13.0 | 0.00 | 0.25 | 0.25 | 47 | 1012.1 |
| 20260831162105 | 74 | 230 | 8.0 | 17.0 | 0.00 | 0.25 | 0.25 | 46 | 1012.2 |
| 20260831161102 | 74 | 225 | 7.0 | 11.0 | 0.00 | 0.25 | 0.25 | 46 | 1012.0 |
| 20260831160059 | 75 | 192 | 9.0 | 15.0 | 0.00 | 0.25 | 0.25 | 46 | 1012.1 |
| 20260831155056 | 76 | 229 | 8.0 | 17.0 | 0.00 | 0.25 | 0.25 | 44 | 1011.9 |
| 20260831154053 | 76 | 239 | 9.0 | 22.0 | 0.00 | 0.25 | 0.25 | 44 | 1012.0 |
| 20260831153051 | 76 | 181 | 6.0 | 16.0 | 0.00 | 0.25 | 0.25 | 44 | 1011.9 |
| 20260831152046 | 76 | 219 | 6.0 | 14.0 | 0.00 | 0.25 | 0.25 | 44 | 1011.9 |
| 20260831151040 | 74 | 233 | 7.0 | 16.0 | 0.00 | 0.25 | 0.25 | 44 | 1012.1 |
| 20260831150039 | 75 | 226 | 10.0 | 23.0 | 0.00 | 0.25 | 0.25 | 43 | 1012.0 |
| 20260831145038 | 75 | 178 | 9.0 | 21.0 | 0.00 | 0.25 | 0.25 | 44 | 1012.0 |
| 20260831144032 | 76 | 244 | 9.0 | 18.0 | 0.00 | 0.25 | 0.25 | 44 | 1012.1 |
| 20260831143026 | 75 | 221 | 12.0 | 22.0 | 0.00 | 0.25 | 0.25 | 44 | 1012.0 |
| 20260831142022 | 75 | 238 | 10.0 | 20.0 | 0.00 | 0.25 | 0.25 | 45 | 1012.2 |
| 20260831141019 | 75 | 242 | 10.0 | 21.0 | 0.00 | 0.25 | 0.25 | 46 | 1012.1 |
| 20260831140114 | 76 | 214 | 11.0 | 22.0 | 0.00 | 0.25 | 0.25 | 45 | 1012.1 |
| 20260831135109 | 76 | 240 | 10.0 | 18.0 | 0.00 | 0.25 | 0.25 | 47 | 1012.0 |
| 20260831134107 | 75 | 243 | 11.0 | 21.0 | 0.00 | 0.25 | 0.25 | 48 | 1012.1 |
| 20260831133102 | 76 | 218 | 11.0 | 22.0 | 0.00 | 0.25 | 0.25 | 47 | 1012.0 |
| 20260831132059 | 76 | 221 | 9.0 | 21.0 | 0.00 | 0.25 | 0.25 | 48 | 1012.0 |
| 20260831131056 | 76 | 244 | 9.0 | 17.0 | 0.00 | 0.25 | 0.25 | 48 | 1012.0 |
| 20260831130055 | 76 | 202 | 8.0 | 17.0 | 0.00 | 0.25 | 0.25 | 50 | 1012.1 |
| 20260831125047 | 76 | 232 | 7.0 | 17.0 | 0.00 | 0.25 | 0.25 | 51 | 1012.1 |
| 20260831124043 | 73 | 201 | 8.0 | 17.0 | 0.00 | 0.25 | 0.25 | 54 | 1012.2 |
| 20260831123041 | 74 | 241 | 9.0 | 17.0 | 0.00 | 0.25 | 0.25 | 54 | 1012.2 |
| 20260831122037 | 75 | 229 | 7.0 | 17.0 | 0.00 | 0.25 | 0.25 | 54 | 1012.2 |
| 20260831121033 | 75 | 199 | 8.0 | 16.0 | 0.00 | 0.25 | 0.25 | 53 | 1012.1 |
| 20260831120032 | 75 | 249 | 9.0 | 15.0 | 0.00 | 0.25 | 0.25 | 54 | 1012.3 |
| 20260831115028 | 74 | 229 | 7.0 | 16.0 | 0.00 | 0.25 | 0.25 | 54 | 1012.3 |
| 20260831114024 | 74 | 255 | 7.0 | 15.0 | 0.00 | 0.25 | 0.25 | 55 | 1012.3 |